Torna al catalogo

STARLINK-5435

AttivoComunicazioniVLEO
NORAD 54797·PAYLOAD·🇺🇸 United States

Lanciato Dec 17, 2022 da Cape Canaveral Space Force Station

Loading…

Prossimi Passaggi (prossime 24 ore)

TLE

AggiornatoSource: CelesTrak SupGP

Epoca: Sep 15, 2026, 02:25 UTC

1 54797C 22175AR  26258.10118056 -.00023467  00000+0 -69330-3 0  2589
2 54797  53.1585 263.1542 0001447  91.4229  19.4300 15.34403596    15

Traccia STARLINK-5435 in tempo reale con AllMySat

Download on the App Store